| time (UTC) | temp F | wind direction | speed MPH | gust MPH | rain 1hr in | rain 24hr in | rain mn in | humidity % | barometer mb |
| 20260903174518 | 84 | 122 | 3.0 | 5.0 | 0.00 | 1.74 | 0.00 | 99 | 680.3 |
| 20260903173519 | 84 | 104 | 3.0 | 5.0 | 0.00 | 1.75 | 0.00 | 99 | 680.3 |
| 20260903172519 | 84 | 94 | 4.0 | 8.0 | 0.00 | 1.75 | 0.00 | 99 | 680.3 |
| 20260903171519 | 84 | 102 | 2.0 | 4.0 | 0.00 | 1.75 | 0.00 | 99 | 680.3 |
| 20260903170519 | 84 | 100 | 2.0 | 5.0 | 0.00 | 1.75 | 0.00 | 99 | 680.3 |
| 20260903165519 | 84 | 120 | 2.0 | 6.0 | 0.00 | 1.75 | 0.00 | 99 | 680.3 |
| 20260903164519 | 84 | 56 | 2.0 | 5.0 | 0.00 | 1.75 | 0.00 | 99 | 680.3 |
| 20260903163540 | 83 | 46 | 2.0 | 4.0 | 0.00 | 1.75 | 0.00 | 99 | 680.2 |
| 20260903162437 | 0 | 0.0 | 0.0 | 0.00 | 1.75 | 0.00 | |||
| 20260903161520 | 84 | 72 | 2.0 | 5.0 | 0.00 | 1.75 | 0.00 | 99 | 680.3 |
| 20260903160437 | 83 | 54 | 2.0 | 3.0 | 0.00 | 1.75 | 0.00 | 99 | 680.2 |
| 20260903155520 | 83 | 69 | 1.0 | 2.0 | 0.00 | 1.75 | 0.00 | 99 | 680.2 |
| 20260903154520 | 83 | 163 | 1.0 | 3.0 | 0.00 | 1.75 | 0.00 | 99 | 680.2 |
| 20260903153520 | 83 | 225 | 1.0 | 3.0 | 0.00 | 1.75 | 0.00 | 99 | 680.2 |
| 20260903152540 | 81 | 239 | 2.0 | 3.0 | 0.00 | 1.75 | 0.00 | 99 | 680.2 |
| 20260903151520 | 80 | 142 | 0.0 | 1.0 | 0.00 | 1.75 | 0.00 | 99 | 680.2 |
| 20260903150521 | 79 | 119 | 2.0 | 3.0 | 0.00 | 1.75 | 0.00 | 99 | 680.2 |
| 20260903145521 | 79 | 358 | 1.0 | 2.0 | 0.00 | 1.75 | 0.00 | 99 | 680.1 |
| 20260903144511 | 77 | 347 | 1.0 | 4.0 | 0.00 | 1.75 | 0.00 | 99 | 680.1 |
| 20260903143521 | 76 | 347 | 1.0 | 4.0 | 0.00 | 1.75 | 0.00 | 99 | 680.1 |
| 20260903142438 | 75 | 357 | 2.0 | 6.0 | 0.00 | 1.75 | 0.00 | 99 | 680.0 |
| 20260903141509 | 73 | 310 | 4.0 | 5.0 | 0.00 | 1.75 | 0.00 | 99 | 680.0 |
| 20260903140521 | 73 | 293 | 4.0 | 6.0 | 0.00 | 1.75 | 0.00 | 99 | 680.0 |
| 20260903135522 | 72 | 285 | 4.0 | 4.0 | 0.00 | 1.75 | 0.00 | 99 | 680.0 |
| 20260903134439 | 71 | 288 | 4.0 | 5.0 | 0.00 | 1.75 | 0.00 | 99 | 680.0 |
| 20260903133522 | 71 | 288 | 4.0 | 5.0 | 0.00 | 1.75 | 0.00 | 99 | 680.0 |
| 20260903132522 | 70 | 288 | 4.0 | 5.0 | 0.00 | 1.75 | 0.00 | 99 | 679.9 |
| 20260903131522 | 69 | 285 | 4.0 | 5.0 | 0.00 | 1.75 | 0.00 | 99 | 679.9 |
| 20260903130522 | 69 | 283 | 4.0 | 4.0 | 0.00 | 1.75 | 0.00 | 99 | 679.9 |
| 20260903125522 | 68 | 279 | 3.0 | 4.0 | 0.00 | 1.75 | 0.00 | 99 | 679.9 |
| 20260903124639 | 68 | 280 | 3.0 | 4.0 | 0.00 | 1.75 | 0.00 | 99 | 679.9 |
| 20260903123523 | 68 | 297 | 3.0 | 4.0 | 0.00 | 1.75 | 0.00 | 99 | 679.9 |
| 20260903122440 | 67 | 359 | 1.0 | 3.0 | 0.00 | 1.75 | 0.00 | 99 | 679.9 |
| 20260903121523 | 67 | 35 | 2.0 | 3.0 | 0.00 | 1.75 | 0.00 | 99 | 679.9 |
| 20260903120523 | 67 | 45 | 1.0 | 2.0 | 0.00 | 1.75 | 0.00 | 99 | 679.9 |
| 20260903115523 | 66 | 37 | 2.0 | 3.0 | 0.00 | 1.75 | 0.00 | 99 | 679.9 |
| 20260903114453 | 66 | 46 | 1.0 | 2.0 | 0.00 | 1.75 | 0.00 | 99 | 679.9 |
| 20260903113454 | 66 | 352 | 2.0 | 3.0 | 0.00 | 1.75 | 0.00 | 99 | 679.9 |
| 20260903112454 | 66 | 254 | 1.0 | 2.0 | 0.00 | 1.75 | 0.00 | 99 | 679.9 |
| 20260903111534 | 66 | 53 | 1.0 | 1.0 | 0.00 | 1.75 | 0.00 | 99 | 679.9 |
| 20260903110524 | 66 | 49 | 1.0 | 2.0 | 0.00 | 1.75 | 0.00 | 99 | 679.9 |
| 20260903105501 | 66 | 48 | 1.0 | 2.0 | 0.00 | 1.75 | 0.00 | 99 | 679.9 |
| 20260903104524 | 66 | 50 | 1.0 | 2.0 | 0.00 | 1.75 | 0.00 | 99 | 679.9 |
| 20260903103442 | 0 | 0.0 | 0.0 | 0.00 | 1.75 | 0.00 | |||
| 20260903102524 | 65 | 15 | 3.0 | 4.0 | 0.00 | 1.75 | 0.00 | 99 | 679.9 |
| 20260903101454 | 65 | 43 | 2.0 | 3.0 | 0.00 | 1.75 | 0.00 | 99 | 679.9 |
| 20260903100545 | 66 | 32 | 2.0 | 3.0 | 0.00 | 1.75 | 0.00 | 99 | 679.9 |
| 20260903095525 | 66 | 28 | 2.0 | 3.0 | 0.00 | 1.75 | 0.00 | 99 | 679.9 |
| 20260903094525 | 66 | 49 | 1.0 | 2.0 | 0.00 | 1.75 | 0.00 | 99 | 679.9 |
| 20260903093545 | 66 | 51 | 1.0 | 1.0 | 0.00 | 1.75 | 0.00 | 99 | 679.9 |
| 20260903092525 | 66 | 334 | 2.0 | 3.0 | 0.00 | 1.75 | 0.00 | 99 | 679.9 |
| 20260903091546 | 66 | 244 | 1.0 | 3.0 | 0.00 | 1.75 | 0.00 | 99 | 679.9 |
| 20260903090526 | 66 | 226 | 1.0 | 2.0 | 0.00 | 1.75 | 0.00 | 99 | 679.9 |
| 20260903085456 | 66 | 52 | 1.0 | 2.0 | 0.00 | 1.75 | 0.00 | 99 | 679.9 |
| 20260903084546 | 66 | 53 | 1.0 | 2.0 | 0.00 | 1.75 | 0.00 | 99 | 679.9 |
| 20260903083526 | 66 | 235 | 1.0 | 2.0 | 0.00 | 1.75 | 0.00 | 99 | 679.9 |
| 20260903082526 | 66 | 56 | 1.0 | 1.0 | 0.00 | 1.75 | 0.00 | 99 | 679.9 |
| 20260903081457 | 66 | 50 | 1.0 | 3.0 | 0.00 | 1.75 | 0.00 | 99 | 679.9 |
| 20260903080527 | 66 | 51 | 2.0 | 2.0 | 0.00 | 1.75 | 0.00 | 99 | 679.9 |
| 20260903075546 | 66 | 54 | 2.0 | 2.0 | 0.00 | 1.75 | 0.00 | 99 | 679.9 |
| 20260903074527 | 66 | 53 | 2.0 | 2.0 | 0.00 | 1.75 | 0.00 | 99 | 679.9 |
| 20260903073527 | 67 | 58 | 2.0 | 2.0 | 0.00 | 1.75 | 0.00 | 99 | 679.9 |
| 20260903072500 | 67 | 53 | 2.0 | 3.0 | 0.00 | 1.75 | 0.00 | 99 | 679.9 |
| 20260903071607 | 67 | 56 | 2.0 | 2.0 | 0.00 | 1.75 | 0.00 | 99 | 679.9 |
| 20260903070528 | 67 | 33 | 2.0 | 3.0 | 0.00 | 1.75 | 0.00 | 99 | 679.9 |
| 20260903065527 | 67 | 47 | 2.0 | 2.0 | 0.00 | 1.75 | 0.00 | 99 | 679.9 |
| 20260903064445 | 67 | 51 | 2.0 | 3.0 | 0.00 | 1.75 | 0.00 | 99 | 679.9 |
| 20260903063528 | 67 | 50 | 2.0 | 2.0 | 0.00 | 1.75 | 0.00 | 99 | 679.9 |
| 20260903062458 | 68 | 49 | 2.0 | 3.0 | 0.00 | 1.75 | 0.00 | 99 | 679.9 |
| 20260903061601 | 68 | 54 | 2.0 | 2.0 | 0.00 | 1.75 | 0.00 | 99 | 679.9 |
| 20260903060458 | 68 | 56 | 3.0 | 3.0 | 0.00 | 1.75 | 0.00 | 99 | 679.9 |
| 20260903055558 | 68 | 51 | 3.0 | 3.0 | 0.00 | 1.75 | 0.00 | 99 | 679.9 |
| 20260903054609 | 68 | 53 | 3.0 | 3.0 | 0.00 | 1.75 | 0.00 | 99 | 679.9 |
| 20260903053534 | 68 | 51 | 3.0 | 3.0 | 0.00 | 1.75 | 0.00 | 99 | 679.9 |
| 20260903052446 | 68 | 54 | 3.0 | 4.0 | 0.00 | 1.75 | 0.00 | 99 | 679.9 |
| 20260903051512 | 68 | 49 | 2.0 | 3.0 | 0.00 | 1.75 | 0.00 | 99 | 679.9 |
| 20260903050513 | 68 | 51 | 3.0 | 3.0 | 0.00 | 1.75 | 0.00 | 99 | 679.9 |
| 20260903045459 | 68 | 54 | 3.0 | 4.0 | 0.00 | 1.75 | 0.00 | 99 | 679.9 |
| 20260903044529 | 68 | 57 | 3.0 | 4.0 | 0.00 | 1.75 | 0.00 | 99 | 679.9 |
| 20260903043501 | 68 | 54 | 3.0 | 4.0 | 0.00 | 1.75 | 0.00 | 99 | 679.9 |
| 20260903042530 | 68 | 56 | 3.0 | 3.0 | 0.00 | 1.75 | 0.00 | 99 | 679.9 |
| 20260903041447 | 68 | 54 | 3.0 | 3.0 | 0.00 | 1.75 | 0.00 | 99 | 679.9 |
| 20260903040447 | 68 | 52 | 3.0 | 3.0 | 0.00 | 1.75 | 0.00 | 99 | 679.9 |
| 20260903035530 | 69 | 53 | 4.0 | 5.0 | 0.00 | 1.75 | 1.75 | 99 | 679.9 |
| 20260903034550 | 69 | 54 | 3.0 | 4.0 | 0.00 | 1.75 | 1.75 | 99 | 679.9 |
| 20260903033448 | 69 | 53 | 3.0 | 4.0 | 0.00 | 1.75 | 1.75 | 99 | 679.9 |
| 20260903032610 | 69 | 50 | 3.0 | 3.0 | 0.00 | 1.75 | 1.75 | 99 | 679.9 |
| 20260903031551 | 69 | 38 | 2.0 | 3.0 | 0.00 | 1.75 | 1.75 | 99 | 679.9 |
| 20260903030531 | 69 | 50 | 3.0 | 4.0 | 0.00 | 1.75 | 1.75 | 99 | 679.9 |
| 20260903025501 | 69 | 52 | 4.0 | 5.0 | 0.03 | 1.75 | 1.75 | 99 | 679.9 |
| 20260903024530 | 69 | 50 | 4.0 | 4.0 | 0.14 | 1.75 | 1.75 | 99 | 679.9 |
| 20260903023531 | 69 | 55 | 2.0 | 3.0 | 0.23 | 1.75 | 1.75 | 99 | 679.9 |
| 20260903022501 | 69 | 51 | 3.0 | 5.0 | 0.24 | 1.75 | 1.75 | 99 | 679.9 |
| 20260903021516 | 69 | 44 | 2.0 | 2.0 | 0.35 | 1.75 | 1.75 | 99 | 679.9 |
| 20260903020502 | 69 | 93 | 2.0 | 3.0 | 0.35 | 1.75 | 1.75 | 99 | 679.9 |
| 20260903015450 | 69 | 109 | 3.0 | 9.0 | 0.32 | 1.72 | 1.72 | 99 | 679.9 |
| 20260903014517 | 69 | 56 | 5.0 | 7.0 | 0.20 | 1.61 | 1.61 | 99 | 679.9 |
| 20260903013502 | 70 | 43 | 3.0 | 5.0 | 0.12 | 1.52 | 1.52 | 99 | 679.9 |
| 20260903012502 | 70 | 350 | 4.0 | 7.0 | 0.11 | 1.52 | 1.52 | 99 | 679.9 |
| 20260903011510 | 70 | 51 | 4.0 | 4.0 | 0.01 | 1.40 | 1.40 | 99 | 679.9 |
| 20260903010502 | 70 | 52 | 3.0 | 4.0 | 0.02 | 1.40 | 1.40 | 99 | 679.9 |
| 20260903005510 | 0 | 0.0 | 0.0 | 0.04 | 1.40 | 1.40 | |||
| 20260903004450 | 0 | 0.0 | 0.0 | 0.05 | 1.40 | 1.40 | |||
| 20260903003543 | 70 | 29 | 2.0 | 3.0 | 0.05 | 1.40 | 1.40 | 99 | 679.9 |
| 20260903002523 | 70 | 13 | 4.0 | 5.0 | 0.05 | 1.40 | 1.40 | 99 | 679.9 |
| 20260903001503 | 70 | 31 | 3.0 | 3.0 | 0.04 | 1.40 | 1.40 | 99 | 679.9 |
| 20260903000518 | 70 | 46 | 4.0 | 5.0 | 0.03 | 1.39 | 1.39 | 99 | 679.9 |
| 20260902235541 | 70 | 39 | 3.0 | 4.0 | 0.01 | 1.36 | 1.36 | 99 | 679.9 |
| 20260902234518 | 70 | 25 | 3.0 | 3.0 | 0.00 | 1.35 | 1.35 | 99 | 679.9 |
| 20260902233451 | 70 | 28 | 3.0 | 3.0 | 0.00 | 1.35 | 1.35 | 99 | 680.0 |
| 20260902232516 | 70 | 35 | 3.0 | 3.0 | 0.00 | 1.35 | 1.35 | 99 | 680.0 |
| 20260902231533 | 70 | 43 | 3.0 | 4.0 | 0.00 | 1.35 | 1.35 | 99 | 680.0 |
| 20260902230524 | 0 | 0.0 | 0.0 | 0.00 | 1.35 | 1.35 | |||
| 20260902225516 | 70 | 43 | 3.0 | 3.0 | 0.06 | 1.35 | 1.35 | 99 | 680.0 |
| 20260902224517 | 70 | 38 | 3.0 | 4.0 | 0.48 | 1.35 | 1.35 | 99 | 680.0 |
| 20260902223517 | 70 | 45 | 4.0 | 6.0 | 0.80 | 1.35 | 1.35 | 99 | 680.0 |
| 20260902222504 | 70 | 33 | 4.0 | 7.0 | 0.88 | 1.35 | 1.35 | 99 | 680.0 |
| 20260902221453 | 70 | 48 | 6.0 | 8.0 | 0.88 | 1.35 | 1.35 | 99 | 680.0 |
| 20260902220504 | 70 | 47 | 3.0 | 7.0 | 0.88 | 1.35 | 1.35 | 99 | 680.0 |
| 20260902215504 | 70 | 85 | 6.0 | 9.0 | 0.82 | 1.29 | 1.29 | 99 | 680.0 |
| 20260902214505 | 71 | 196 | 6.0 | 12.0 | 0.40 | 0.88 | 0.88 | 99 | 680.0 |
| 20260902213518 | 73 | 171 | 5.0 | 9.0 | 0.08 | 0.56 | 0.56 | 99 | 680.0 |
| 20260902212505 | 76 | 204 | 6.0 | 12.0 | 0.00 | 0.47 | 0.47 | 99 | 680.1 |
| 20260902211538 | 77 | 9 | 2.0 | 3.0 | 0.10 | 0.47 | 0.47 | 99 | 680.1 |
| 20260902210538 | 77 | 358 | 3.0 | 5.0 | 0.46 | 0.47 | 0.47 | 99 | 680.1 |
| 20260902205518 | 78 | 359 | 2.0 | 4.0 | 0.46 | 0.47 | 0.47 | 99 | 680.1 |
| 20260902204519 | 77 | 341 | 2.0 | 3.0 | 0.46 | 0.47 | 0.47 | 99 | 680.1 |
| 20260902203530 | 76 | 354 | 2.0 | 3.0 | 0.46 | 0.47 | 0.47 | 99 | 680.1 |
| 20260902202506 | 78 | 8 | 4.0 | 6.0 | 0.45 | 0.47 | 0.47 | 99 | 680.1 |
| 20260902201519 | 82 | 15 | 8.0 | 14.0 | 0.36 | 0.38 | 0.38 | 99 | 680.2 |
| 20260902200519 | 84 | 5 | 3.0 | 5.0 | 0.00 | 0.01 | 0.01 | 99 | 680.3 |
| 20260902195520 | 84 | 15 | 4.0 | 6.0 | 0.00 | 0.01 | 0.01 | 99 | 680.3 |
| 20260902194519 | 84 | 359 | 3.0 | 7.0 | 0.00 | 0.01 | 0.01 | 99 | 680.3 |
| 20260902193507 | 84 | 339 | 2.0 | 4.0 | 0.00 | 0.01 | 0.01 | 99 | 680.3 |
| 20260902192539 | 84 | 330 | 2.0 | 3.0 | 0.00 | 0.01 | 0.01 | 99 | 680.2 |
| 20260902191507 | 84 | 316 | 2.0 | 3.0 | 0.00 | 0.01 | 0.01 | 99 | 680.2 |
| 20260902190525 | 83 | 326 | 1.0 | 2.0 | 0.00 | 0.01 | 0.01 | 99 | 680.2 |
| 20260902185507 | 83 | 334 | 1.0 | 3.0 | 0.00 | 0.01 | 0.01 | 99 | 680.2 |
| 20260902184542 | 83 | 335 | 1.0 | 2.0 | 0.00 | 0.01 | 0.01 | 99 | 680.2 |
| 20260902183541 | 82 | 352 | 1.0 | 2.0 | 0.01 | 0.01 | 0.01 | 99 | 680.2 |
| 20260902182507 | 82 | 122 | 2.0 | 4.0 | 0.01 | 0.01 | 0.01 | 99 | 680.2 |
| 20260902181507 | 82 | 44 | 1.0 | 3.0 | 0.01 | 0.01 | 0.01 | 99 | 680.2 |
| 20260902180507 | 0 | 0.0 | 0.0 | 0.01 | 0.01 | 0.01 | |||
| 20260902175508 | 82 | 0.0 | 0.0 | 0.01 | 0.01 | 0.01 | 99 | 680.2 |